Notices

What's New in latest Release from April 7th, 2021:

- Updated Glossary, including Speed of Maximum Gust, and Total Hourly Precipitation

- Updated national and regional climate services offices contacts and prices information

- Addition of station inventory lists for 1981-2010, 1971-2000, and 1961-1990 Normals.

If you haven't already, please take our survey and provide feedback about our website: https://eccc.sondage-survey.ca/f/LanguageSelection.aspx?s=442ca660-fcf1-47c0-95a9-59707d6fd709

Hourly Data Report for August 12, 2017

TORONTO CITY
ONTARIO

43°40'00.000" N
79°24'00.000" W
112.50 m
6158355
71508
XTO

Download Data

Hourly Data (August 2017)
Hourly Data Report for August 12, 2017
TIME
LST
Temp Definition
°C
Dew Point Definition
°C
Rel Hum Definition
%
Precip. Amount Definition
mm

Wind Dir Definition
10's deg

Wind Spd Definition
km/h
Visibility Definition
km
Stn Press Definition
kPa
Hmdx Definition


Wind Chill Definition


Weather Definition


00:00 19.2 17.1 87 LegendMM LegendMM LegendMM   99.74     LegendNANA
01:00 17.5 15.6 89 LegendMM LegendMM LegendMM   99.66     LegendNANA
02:00 17.4 15.8 90 LegendMM LegendMM LegendMM   99.66     LegendNANA
03:00 17.1 15.5 90 LegendMM LegendMM LegendMM   99.70     LegendNANA
04:00 17.1 15.5 90 LegendMM LegendMM LegendMM   99.70     LegendNANA
05:00 16.8 15.2 91 LegendMM LegendMM LegendMM   99.71     LegendNANA
06:00 17.5 15.7 89 LegendMM LegendMM LegendMM   99.74     LegendNANA
07:00 18.6 16.0 85 LegendMM LegendMM LegendMM   99.76     LegendNANA
08:00 20.5 16.9 80 LegendMM LegendMM LegendMM   99.77 26   LegendNANA
09:00 22.5 16.4 69 LegendMM LegendMM LegendMM   99.75 27   LegendNANA
10:00 22.7 16.9 70 LegendMM LegendMM LegendMM   99.74 28   LegendNANA
11:00 22.6 16.9 70 LegendMM LegendMM LegendMM   99.74 28   LegendNANA
12:00 22.9 16.5 67 LegendMM LegendMM LegendMM   99.71 28   LegendNANA
13:00 24.3 15.7 59 LegendMM LegendMM LegendMM   99.69 29   LegendNANA
14:00 26.3 14.5 48 LegendMM LegendMM LegendMM   99.65 30   LegendNANA
15:00 21.6 16.7 74 LegendMM LegendMM LegendMM   99.73 27   LegendNANA
16:00 22.7 17.7 73 LegendMM LegendMM LegendMM   99.74 28   LegendNANA
17:00 22.7 16.2 66 LegendMM LegendMM LegendMM   99.72 27   LegendNANA
18:00 22.9 14.2 58 LegendMM LegendMM LegendMM   99.75 26   LegendNANA
19:00 21.4 13.7 62 LegendMM LegendMM LegendMM   99.82 25   LegendNANA
20:00 20.5 14.3 67 LegendMM LegendMM LegendMM   99.89     LegendNANA
21:00 19.9 14.4 70 LegendMM LegendMM LegendMM   99.96     LegendNANA
22:00 19.5 14.0 71 LegendMM LegendMM LegendMM   99.98     LegendNANA
23:00 19.0 13.8 72 LegendMM LegendMM LegendMM   99.99     LegendNANA

Notes on Data Quality.

Legend

  • E = Estimated
  • M = Missing
  • NA = Not Available*
  • [empty] = Indicates an unobserved value
Date modified: